Other Public Products
Issued by NWS Grand Forks, ND

Home | Current Version | Previous Version | Text Only | Print | Product List | Glossary On
Versions: 1 2 3 4 5 6 7 8 9 10 11 12 13 14 15 16 17 18 19 20 21 22 23 24 25 26 27 28 29 30 31 32 33 34 35 36 37 38 39 40 41 42 43 44 45 46 47 48 49 50
500
FPUS83 KFGF 140631
OPUFGF
PRAIRIE TO PINES WEATHER ROUNDUP
NATIONAL WEATHER SERVICE EASTERN NORTH DAKOTA/GRAND FORKS ND
1200 AM CST SUN FEB 14 2016

 **SATELLITE DATA USED TO AUGMENT SKY COVER AT AUTOMATED STATIONS**
 *****  WEATHER ACROSS EASTERN NORTH DAKOTA  *****

CITY           SKY/WX    TMP DP  RH WIND       PRES   REMARKS
GRAND FORKS    LGT SNOW  13   6  74 S21G33    30.03F VSB 1   WCI  -5
6HR MIN TEMP:  12; 6HR MAX TEMP:  15; 6HR PCP: TRACE;

GRAND FORKS AF LGT SNOW  10   5  79 S24G32    30.00S WCI -10
GRAND CITY NWS NOT AVBL
BUXTON           N/A     11   8  87 SE21G32     N/A  WCI  -8
DEVILS LAKE    LGT SNOW  11   7  84 S18G25    29.89F FOG     WCI  -7
6HR MIN TEMP:   8; 6HR MAX TEMP:  11; 6HR PCP: TRACE;

FARGO          CLOUDY    13   2  61 S16G31    30.07F WCI  -3
6HR MIN TEMP:  13; 6HR MAX TEMP:  15; 6HR PCP: TRACE;

WAHPETON ARPT  CLOUDY    12   5  73 S23       30.08F WCI  -7
$$

 *****  WEATHER ACROSS CENTRAL AND WESTERN NORTH DAKOTA  *****

CITY           SKY/WX    TMP DP  RH WIND       PRES   REMARKS
JAMESTOWN      LGT SNOW  13   8  81 S16G28    29.90F WCI  -3
6HR MIN TEMP:   9; 6HR MAX TEMP:  13; 6HR PCP:  0.03;

BISMARCK       CLOUDY    19  15  84 SE9       29.82F FOG     WCI   8
6HR MIN TEMP:  18; 6HR MAX TEMP:  19; 6HR PCP:  0.07;

MINOT          LGT SNOW  19  12  74 SE6       29.77F WCI  11
6HR MIN TEMP:  17; 6HR MAX TEMP:  19; 6HR PCP:  0.25;

MINOT AFB      LGT SNOW  16  16 100 CALM      29.75F FOG
6HR MIN TEMP:  15; 6HR MAX TEMP:  17; 6HR PCP: TRACE;

GARRISON         N/A     18  16  92 S3        29.76F
6HR MIN TEMP:  14; 6HR MAX TEMP:  18; 6HR PCP:  0.04;

WILLISTON      CLOUDY    28  23  81 NW9       29.82S WCI  19
6HR MIN TEMP:  22; 6HR MAX TEMP:  32;

DICKINSON      CLOUDY    32  29  88 NW20G28   29.76S WCI  20
6HR MIN TEMP:  21; 6HR MAX TEMP:  35; 6HR PCP: TRACE;

HETTINGER      CLOUDY    36  32  85 NW18      29.79F
6HR MIN TEMP:  22; 6HR MAX TEMP:  37; 6HR PCP: TRACE;

$$

 *****  OTHER OBSERVATIONS NORTHEAST NORTH DAKOTA  *****

CITY           SKY/WX    TMP DP  RH WIND       PRES   REMARKS
WALHALLA       FAIR      14   5  67 S17G25    29.97F WCI  -3
LANGDON        CLOUDY    10   5  79 S22       29.90F HAZE    WCI  -9
CAVALIER       NOT AVBL
GRAFTON        MOCLDY    12   7  79 SE16      30.04F WCI  -4
CANDO          CLOUDY    10   9  92 S20       29.88F FOG     WCI  -8
FORT TOTTEN      N/A     10   6  84 S18       29.95S WCI  -8
ROLLA          CLOUDY     9   7  92 S12G17    29.83F FOG     WCI  -6
RUGBY          NOT AVBL
 ***** THE ABOVE OBSERVATIONS ARE NON NWS ARE NOT QUALITY
        CONTROLLED AND MAY MIS-REPORT RAIN FOR SNOW...
$$

 *****  OTHER OBSERVATIONS SOUTHEAST NORTH DAKOTA *****

CITY           SKY/WX    TMP DP  RH WIND       PRES   REMARKS
COOPERSTOWN    NOT AVBL
VALLEY CITY    NOT AVBL
OAKES          LGT SNOW  14  10  85 S17       29.96F VSB 3/4 WCI  -3
GWINNER        CLOUDY    14  10  85 SE18      29.99F WCI  -3
SHEYENNE NWR     N/A     11   4  74 S17       29.95S WCI  -6
BUFFALO          N/A     11   3  70 S21         N/A  WCI  -8
WYNDMERE         N/A     10   7  85 S20         N/A  WCI  -8
 ***** THE ABOVE OBSERVATIONS ARE NON NWS ARE NOT QUALITY
       CONTROLLED AND MAY MIS-REPORT RAIN FOR SNOW...
$$

  *****  WEATHER ACROSS NORTHERN MINNESOTA  *****

CITY           SKY/WX    TMP DP  RH WIND       PRES   REMARKS
FLAG ISLAND    CLOUDY     0 -11  60 SE13      30.11F WCI -18
WARROAD        CLOUDY     7  -6  56 SE9       30.10F WCI  -7
ROSEAU         CLOUDY    10  -2  56 S13       30.09S WCI  -5
HALLOCK        CLOUDY    12   3  67 SE24G30   30.03F WCI  -8
THF RVR FALLS  CLOUDY    10  -2  56 SE13G20   30.06F WCI  -5
6HR MIN TEMP:   9; 6HR MAX TEMP:  12;

HALSTAD          N/A     12   3  67 S20         N/A  WCI  -6
FOSSTON        CLOUDY     9  -4  56 SE15G22   30.07F WCI  -8
BAUDETTE       CLEAR     -1 -16  48 SE14      30.13F WCI -20
6HR MIN TEMP:  -1; 6HR MAX TEMP:   3;

WASKISH        CLOUDY     3  -9  55 SE8       30.13F WCI -10
CROOKSTON      FLURRIES  12   3  67 S20       30.07F WCI  -6
$$
  *****  WEATHER ACROSS CENTRAL AND WEST MINNESOTA  *****

CITY           SKY/WX    TMP DP  RH WIND       PRES   REMARKS
BEMIDJI        CLOUDY     6  -6  57 SE15      30.11F WCI -12
PARK RAPIDS    CLOUDY     9  -5  53 SE16      30.12F WCI  -8
6HR MIN TEMP:   6; 6HR MAX TEMP:   9;

WADENA         CLOUDY     9  -2  61 SE15      30.12F WCI  -8
DETROIT LAKES  CLOUDY    10   3  72 S17G23    30.07F WCI  -7
MOORHEAD       CLOUDY    12   3  67 S23       30.06F WCI  -7
FERGUS FALLS   CLOUDY    10   3  72 S24G30    30.13F WCI -10
ELBOW LAKE     CLOUDY    10   3  72 E21G26    30.10F WCI  -9
6HR MIN TEMP:  10; 6HR MAX TEMP:  11;

MORRIS MN      CLOUDY    10   5  79 SE23      30.10F WCI -10
STAPLES        CLOUDY     9  -6  52 S10       30.14F WCI  -6
WHEATON        FLURRIES  12   9  85 SE22      30.10F WCI  -7
$$
  *****  WEATHER ELSEWHERE ACROSS MINNESOTA  *****

CITY           SKY/WX    TMP DP  RH WIND       PRES   REMARKS
DULUTH         CLOUDY     0 -15  49 S6        30.26F WCI -12
6HR MIN TEMP:  -2; 6HR MAX TEMP:   6;

INTRNTL FALLS  CLOUDY   -10 -18  67 SE7       30.20F WCI -25
6HR MIN TEMP: -12; 6HR MAX TEMP:   0;

ELY            CLOUDY   -17 -22  76 CALM      30.24F
CLOQUET        CLEAR     -2 -17  50 SE5       30.26F WCI -12
BRAINERD       CLOUDY     4  -8  57 SE5       30.19F WCI  -5
6HR MIN TEMP:   0; 6HR MAX TEMP:   4;

HIBBING        CLOUDY    -7 -16  65 SE6       30.22F WCI -20
6HR MIN TEMP: -14; 6HR MAX TEMP:   4;

ALEXANDRIA     CLOUDY     9  -1  64 SE17      30.13F WCI  -9
6HR MIN TEMP:   8; 6HR MAX TEMP:  10;

SAINT CLOUD    CLOUDY     9  -4  55 SE15      30.23F WCI  -8
6HR MIN TEMP:   6; 6HR MAX TEMP:   9;

MINNEAPOLIS    CLOUDY     7  -6  55 SE8       30.30F WCI  -6
6HR MIN TEMP:   6; 6HR MAX TEMP:   7;

$$

  *****  WEATHER ACROSS SOUTH DAKOTA  *****

CITY           SKY/WX    TMP DP  RH WIND       PRES   REMARKS
SIOUX FALLS    FLURRIES  13   7  77 S16       30.07F WCI  -3
6HR MIN TEMP:  11; 6HR MAX TEMP:  13; 6HR PCP:  0.01;

BROOKINGS      LGT SNOW  10   7  85 SE22G28   30.01F FOG     WCI  -9
WATERTOWN      LGT SNOW  12   6  77 S18G30    29.97F WCI  -6
6HR MIN TEMP:  10; 6HR MAX TEMP:  12; 6HR PCP: TRACE;

HURON          LGT SNOW  14   9  80 SE17G32   29.95F WCI  -3
6HR MIN TEMP:  13; 6HR MAX TEMP:  14; 6HR PCP:  0.01;

SISSETON         N/A     11   7  84 S24       30.04F WCI  -9
ABERDEEN       FOG       15  11  83 S22       29.96F VSB 1/2 WCI  -3
6HR MIN TEMP:  14; 6HR MAX TEMP:  16; 6HR PCP:  0.05;

MITCHELL       CLOUDY    16  10  77 SE23G30   29.97F WCI  -2
PIERRE         LGT SNOW  24  23  96 SE9       29.83S VSB 3/4 WCI  14
6HR MIN TEMP:  24; 6HR MAX TEMP:  27; 6HR PCP:  0.04;

MOBRIDGE       LGT SNOW  19  16  88 SE12      29.82F VSB 1   WCI   7
RAPID CITY     CLEAR     39  30  70 NW25      29.87F
6HR MIN TEMP:  34; 6HR MAX TEMP:  41; 6HR PCP:  0.22;

$$

  *****  SOME WEATHER IN NEARBY STATES *****

CITY           SKY/WX    TMP DP  RH WIND       PRES   REMARKS
GLASGOW MT     CLEAR     30  27  88 SW6       29.85F WCI  24
6HR MIN TEMP:  30; 6HR MAX TEMP:  39;

GREAT FALLS MT CLOUDY    39  22  50 SW17      29.92F
6HR MIN TEMP:  36; 6HR MAX TEMP:  44;

CHEYENNE WY    CLEAR     32  24  72 NW12      30.06R WCI  23
6HR MIN TEMP:  31; 6HR MAX TEMP:  50;

SCOTTSBLUFF NE CLEAR     31  28  89 NW7       30.04R WCI  24
6HR MIN TEMP:  31; 6HR MAX TEMP:  58; 6HR PCP:  0.01;

OMAHA NE       CLOUDY    20   4  50 SE20      30.15F WCI   4
6HR MIN TEMP:  19; 6HR MAX TEMP:  20;

DES MOINES IA  FLURRIES  15   9  76 SE12G21   30.27F WCI   2
6HR MIN TEMP:  14; 6HR MAX TEMP:  16; 6HR PCP:  0.09;

DAVENPORT IA   CLOUDY    17  -1  45 SE10      30.40F WCI   5
6HR MIN TEMP:  15; 6HR MAX TEMP:  17;

CHICAGO IL     CLOUDY    11  -3  53 NE6       30.45F WCI   1
6HR MIN TEMP:  10; 6HR MAX TEMP:  13;

EAU CLAIRE WI  CLOUDY    -8 -14  74 CALM      30.35F
6HR MIN TEMP:  -9; 6HR MAX TEMP:   4;

LA CROSSE WI   CLOUDY     3  -7  63 SE5       30.40F WCI  -6
6HR MIN TEMP:   0; 6HR MAX TEMP:   7;

$$

  *****  SOME NATIONAL WEATHER *****

CITY           SKY/WX    TMP DP  RH WIND       PRES   REMARKS
LA GUARDIA NY  PTCLDY     8  -9  45 NW24G31   30.32R WCI -13      C1F1C2F2C3F3C4F4C5F5C6F6C7F7C8F8C9F9CaFaCbFbCcFcCdFdCe!



USA.gov is the U.S. government's official web portal to all federal, state and local government web resources and services.